Location: Emanuelssegen
(50.1975°N, 19.0449°E)
Time: 06:38:53
(UTC+00:00)

Daily predictions for brighter satellites

Satellite Brightness Start Highest point End
(mag) Time Altitude Azimuth Time Altitude Azimuth Time Altitude Azimuth
NOAA 12 4.1 15:53:10 10° SSE 15:58:27 77° ENE 16:03:48 10° NNW
CZ-4C R/B 3.5 15:58:09 10° N 16:01:22 58° WNW 16:04:38 10° SSW
NOSS 2-1 (C) 4.5 15:58:52 10° W 16:01:56 32° NNW 16:05:23 10° NNE
Cosmos 1953 Rocket 3.9 15:59:17 10° N 16:03:32 45° ENE 16:07:48 10° SSE
Cosmos 1697 Rocket 4.4 16:03:00 10° ESE 16:04:42 11° E 16:06:25 10° ENE
Radarsat Rocket 4.5 16:00:07 10° S 16:06:07 67° WSW 16:11:55 10° NNW
Cosmos 1331 Rocket 4.2 16:01:29 10° S 16:06:26 50° ESE 16:11:26 10° NNE
Cosmos 1300 3.3 16:04:44 10° SSE 16:08:13 35° E 16:11:44 10° NNE
IRS-1C Rocket 4.4 16:03:26 10° SE 16:08:23 44° ENE 16:13:22 10° N
Cosmos 2058 Rocket 4.1 16:05:33 10° SE 16:09:18 27° E 16:13:05 10° NNE
SL-4 R/B 1.8 16:06:19 10° W 16:09:48 70° N 16:13:29 10° E
SeaSat 1 3.9 16:07:19 10° E 16:10:48 20° NE 16:14:19 10° N
USA 215 3.8 16:04:56 10° ENE 16:11:11 49° N 16:17:25 10° WNW
ATLAS 2AS CENTAUR R/B 3.9 16:04:27 10° NW 16:11:20 32° NNE 16:17:49 10° ENE
Cosmos 1703 4.2 16:08:00 10° NNW 16:11:52 53° W 16:15:43 10° S
H-2A R/B 4.3 16:08:14 10° SSW 16:12:26 40° W 16:16:43 10° NNW
Cosmos 1346 Rocket 4.2 16:10:04 10° NNE 16:12:56 19° ENE 16:15:49 10° ESE
USA 305 3.2 16:08:49 10° WNW 16:13:05 58° NNE 16:17:18 10° E
CZ-2D R/B 4.1 16:10:46 10° SE 16:14:03 28° ENE 16:17:22 10° N
Cosmos 1953 3.9 16:11:11 10° SW 16:14:53 38° WNW 16:18:39 10° N
NOAA 11 4.2 16:09:36 10° SSE 16:15:00 69° ENE 16:20:25 10° N
Cosmos 44 3.6 16:11:08 10° S 16:15:23 42° ESE 16:19:54 10° NE
Cosmos 1825 4.1 16:14:22 10° NE 16:15:51 12° ENE 16:16:47 11° ENE
USA 306 3.1 16:15:15 10° WNW 16:19:30 60° NNE 16:23:25 12° E
Cosmos 968 Rocket 3.9 16:17:29 10° NNW 16:22:26 41° ENE 16:27:20 10° SE
ERS-2 2.0 16:20:54 10° NNE 16:24:33 73° ESE 16:28:11 10° S
SAR-Lupe-4 4.0 16:21:14 10° NNE 16:24:38 39° E 16:28:01 10° S
Cosmos 2369 Rocket 4.0 16:20:03 10° WSW 16:24:54 28° NW 16:29:48 10° NNE
Cosmos 2297 Rocket 2.2 16:19:20 10° NNW 16:25:00 63° ENE 16:30:37 10° SE
Aureole 3 Rocket 3.8 16:21:40 10° SSE 16:25:29 38° E 16:30:36 10° NNE
In-Cosmos 22 Rocket 4.3 16:22:41 10° N 16:27:54 49° ENE 16:33:10 10° SSE
Cosmos 1340 2.9 16:25:14 10° N 16:28:53 45° ENE 16:32:32 10° SSE
COSMO-SKYMED 1 3.0 16:26:26 10° NNE 16:30:32 40° E 16:34:38 10° SSE
H-2A R/B 3.2 16:28:29 10° N 16:32:29 44° WNW 16:36:23 10° SW
FengYun 1-2 T 4.4 16:27:20 10° SSE 16:33:00 81° WSW 16:38:41 10° NNW
Cosmos 1110 Rocket 4.0 16:29:44 10° SSW 16:35:00 89° WNW 16:40:15 10° NNE
Cosmos 1302 Rocket 4.2 16:32:20 10° S 16:37:23 49° ESE 16:42:29 10° NNE
Timation 2 Rocket 4.4 16:33:26 10° NNW 16:40:00 75° WSW 16:46:47 10° SSE
Cosmos 1825 Rocket 4.4 16:35:56 10° NNW 16:40:18 55° W 16:44:37 10° S
Lacrosse 5 2.8 16:35:43 10° WNW 16:40:29 39° N 16:44:18 15° ENE
ADEOS Rocket 4.0 16:36:18 10° N 16:42:26 55° WNW 16:49:12 10° SW
SAR-Lupe-1 4.0 16:39:00 10° NNE 16:42:34 59° ESE 16:46:07 10° S
Cosmos 1486 Rocket 4.1 16:37:25 10° NNW 16:42:44 59° ENE 16:47:59 10° SE
Cosmos 292 Rocket 3.7 16:39:27 10° SSW 16:44:15 80° ESE 16:49:07 10° NNE
Aureole 3 2.8 16:41:32 10° S 16:44:33 47° E 16:47:26 10° NNE
Okean O Rocket 3.3 16:41:31 10° SSW 16:45:33 36° W 16:49:36 10° NNW
FALCON 9 DEB 3.5 16:43:46 10° WNW 16:47:08 53° N 16:48:52 25° ENE
YAOGAN 1 2.9 16:43:09 10° SE 16:47:15 44° ENE 16:51:23 10° N
Meteor 2-8 Rocket 4.5 16:41:49 10° S 16:47:47 60° E 16:53:49 10° NNE
USA 281 4.4 16:41:49 10° S 16:48:04 46° WSW 16:54:22 10° NW
ERBS 3.9 16:46:39 10° WNW 16:49:29 25° N 16:51:09 17° NE
FALCON 9 DEB 3.3 16:46:39 10° SW 16:49:47 47° SSE 16:51:05 28° E
Cosmos 1503 Rocket 4.3 16:47:28 10° NNW 16:52:28 44° ENE 16:56:47 14° SE
CZ-2C R/B 3.4 16:47:56 10° SE 16:53:34 55° ENE 16:59:02 10° N
FALCON 9 DEB 3.2 16:50:54 10° SW 16:54:01 53° SSE 16:55:10 32° E
SKYMED 3 4.5 16:50:19 10° NNE 16:54:40 68° ESE 16:58:59 10° S
Cosmos 2219 3.4 16:49:29 10° NNW 16:55:16 80° WSW 17:01:02 10° SSE
Cosmos 1455 3.2 16:53:36 10° SSE 16:56:10 25° ESE 16:56:10 25° ESE
Cosmos 1726 Rocket 3.8 16:53:39 10° SSW 16:57:59 70° WNW 17:02:24 10° N
Cosmos 1553 Rocket 4.0 16:54:37 10° S 17:00:53 63° E 17:07:04 10° NNE
USA 307 2.8 16:58:13 10° WNW 17:02:32 81° NNE 17:04:41 29° ESE
Meteor 2-10 Rocket 3.7 16:58:49 10° SSE 17:03:50 45° E 17:08:42 10° NNE
Cosmos 1354 Rocket 4.3 16:58:55 10° NNW 17:04:00 47° ENE 17:07:26 20° SE
Cosmos 2082 3.8 16:58:19 10° NNW 17:04:00 60° NE 17:08:49 15° SE
CZ-4B R/B 2.8 17:01:29 10° N 17:04:31 37° WNW 17:07:28 10° SW
Cosmos 2228 4.2 17:01:04 10° SSW 17:05:08 45° WNW 17:09:17 10° N
Cosmos 1939 Rocket 3.3 17:01:21 10° S 17:05:17 61° W 17:09:11 10° NNW
FALCON 9 DEB 3.0 17:02:48 10° SW 17:06:00 61° SSE 17:06:44 45° E
USA 308 2.8 17:03:03 10° WNW 17:07:22 84° NNE 17:09:20 32° ESE
ATLAS 5 CENTAUR R/B 3.7 17:06:36 10° WNW 17:10:01 20° N 17:13:29 11° NE
Helios 1A Rocket 3.1 17:08:17 10° S 17:12:23 74° WSW 17:16:31 10° NNW
Cosmos 1992 Rocket 4.2 17:11:35 10° S 17:16:30 44° ESE 17:19:35 21° NE
ARGOS 3.4 17:13:10 18° SE 17:17:01 48° ENE 17:22:14 10° N
FALCON 9 DEB 2.8 17:14:26 10° WSW 17:17:38 75° SSE 17:17:56 67° ESE
SKYMED 2 3.8 17:14:22 10° N 17:18:43 71° WNW 17:23:02 10° SSW
Okean-O 2.8 17:14:26 10° S 17:18:52 75° WSW 17:23:19 10° NNW
Cosmos 2369 4.2 17:14:20 10° S 17:19:32 37° ESE 17:21:09 31° ENE
Cosmos 1689 Rocket 2.7 17:17:10 10° N 17:20:01 53° WNW 17:22:50 10° SSW
Cosmos 2151 4.2 17:17:00 10° N 17:19:28 25° NE 17:19:28 25° NE
Meteor 2-15 4.3 17:15:40 10° S 17:21:45 71° E 17:27:53 10° NNE
SL-08 RB Rocket 4.3 17:22:30 34° ENE 17:22:30 34° ENE 17:26:16 10° N
Cosmos 1656 3.6 17:17:27 10° SSW 17:23:01 78° ESE 17:28:37 10° NNE
Cosmos 1745 Rocket 3.9 17:18:12 10° N 17:24:32 84° E 17:30:53 10° S
Cosmos 1400 Rocket 3.5 17:21:21 10° SSW 17:25:24 57° WNW 17:29:27 10° N
H-2A R/B 2.1 17:21:13 10° SSE 17:26:36 72° ENE 17:32:04 10° N
PSLV R/B 4.2 17:22:49 10° N 17:27:01 70° WNW 17:31:08 10° SSW
Ariane Rocket 3.8 17:27:38 31° NE 17:27:38 31° NE 17:31:50 10° N
GEOS 3 Rocket 3.6 17:24:33 25° SE 17:27:47 86° NE 17:33:13 10° NW
Geosat 4.1 17:26:30 33° ENE 17:28:23 49° ESE 17:33:14 10° S
Cosmos 2227 Rocket 2.8 17:23:36 10° NW 17:29:10 59° WSW 17:34:42 10° S
CZ-4 R/B 1.8 17:25:24 10° S 17:29:14 60° WSW 17:33:04 10° NNW
Cosmos 2058 2.8 17:25:12 10° NNW 17:29:19 83° W 17:33:24 10° S
Cosmos 1892 3.4 17:26:48 10° NNW 17:30:37 56° W 17:34:24 10° S
Cosmos 220 Rocket 3.9 17:28:59 10° S 17:33:17 62° ESE 17:34:08 50° ENE
Timation 1 Rocket 4.3 17:28:41 10° NNW 17:34:43 69° NE 17:37:24 34° SE
Cosmos 1408 2.7 17:31:12 10° NNW 17:34:51 74° W 17:37:15 20° S
CSL-04 Rocket 3.6 17:29:22 10° SSE 17:34:55 84° ENE 17:40:28 10° NNW
Cosmos 2263 Rocket 2.8 17:29:49 10° NNW 17:35:04 36° NE 17:35:34 35° ENE
BREEZE-M R/B 3.0 17:30:54 10° W 17:37:02 70° SSW 17:37:08 69° S
NOSS 3-4 (A) 3.9 17:34:49 10° NW 17:41:33 60° NE 17:44:11 39° E
NOSS 3-4 (C) 3.9 17:34:56 10° NW 17:41:38 59° NE 17:44:16 39° E
Meteor 2-1 Rocket 4.0 17:36:41 10° S 17:42:11 81° E 17:47:45 10° NNE
CZ-4C R/B 3.5 17:36:06 10° NW 17:42:14 38° NNE 17:44:25 32° ENE
Cosmos 1697 Rocket 2.5 17:42:01 10° SSW 17:47:35 67° ESE 17:49:37 39° NE
SeaSat 1 2.3 17:46:27 51° SE 17:47:42 79° ENE 17:52:39 10° NNW
SL-4 R/B 2.0 17:45:53 10° WNW 17:49:04 68° WNW 17:49:04 68° WNW
Cosmos 1346 Rocket 3.8 17:45:44 10° NNW 17:49:34 47° W 17:53:24 10° S
CRYOSAT 2 4.3 17:46:19 10° N 17:51:12 82° W 17:56:04 10° S
Cosmos 1825 2.3 17:48:04 10° NNW 17:51:38 70° WNW 17:51:38 70° WNW
NOSS 3-3 (A) 3.8 17:46:47 10° SSW 17:52:34 65° SE 17:54:18 46° ENE
NOSS 3-3 (C) 3.9 17:46:53 10° SSW 17:52:42 64° SE 17:54:24 47° ENE
USA 305 3.2 17:48:57 10° WNW 17:53:11 58° SSW 17:53:27 56° SSW
USA 215 3.3 17:51:39 44° E 17:53:44 65° NNE 18:00:13 10° WNW
Cosmos 1709 Rocket 3.9 17:47:55 10° N 17:54:19 81° E 17:59:42 15° SSE
Cosmos 1315 Rocket 2.9 17:52:34 10° SSW 17:56:20 71° WSW 17:56:20 71° WSW
Cosmos 44 4.4 17:52:21 10° WSW 17:56:41 38° NW 17:59:04 23° NNE
USA 306 3.4 17:55:22 10° WNW 17:59:33 53° SSW 17:59:35 53° SSW
BREEZE-M R/B 4.0 17:59:02 10° W 18:03:28 72° SSW 18:05:18 50° SE
ATLAS 2AS CENTAUR R/B 2.8 17:56:11 10° NW 18:03:47 63° NE 18:05:17 52° E
SJ 16-02 3.7 18:03:27 10° N 18:04:08 13° N 18:04:08 13° N
MOS 1 Rocket 3.5 18:02:59 10° N 18:07:36 71° WNW 18:12:30 10° SSW
Cosmos 2297 Rocket 4.2 18:04:03 10° NW 18:08:38 26° WSW 18:13:11 10° SSW
Cosmos 1980 Rocket 3.4 18:04:46 10° S 18:07:18 27° S 18:07:18 27° S
IRS-1A Rocket 4.2 18:10:35 68° NE 18:10:35 68° NE 18:15:49 10° NNW
Cosmos 1777 Rocket 4.2 18:06:23 10° NNW 18:10:50 60° NNE 18:10:50 60° NNE
COSMOS 2455 4.5 18:07:22 10° NNW 18:11:46 20° NNE 18:12:00 20° NNE
Cosmos 883 Rocket 4.4 18:05:46 10° S 18:11:55 88° W 18:18:06 10° N
Cosmos 2315 Rocket 3.8 18:09:44 10° S 18:15:56 83° E 18:22:10 10° N
MOS 1 4.3 18:18:02 66° NNE 18:18:02 66° NNE 18:23:07 10° NNW
MetOp-A 4.4 18:22:01 56° N 18:22:01 56° N 18:26:17 10° NNW
Cosmos 2227 4.4 18:16:53 10° NNW 18:21:44 61° N 18:21:44 61° N
Lacrosse 5 2.7 18:19:22 10° WNW 18:23:30 43° N 18:23:30 43° N
Cosmos 2360 4.2 18:20:45 10° SSW 18:26:15 81° WSW 18:26:15 81° WSW
Cosmos 1455 4.4 18:29:04 10° SW 18:31:13 23° W 18:31:13 23° W
Meteor 2-3 Rocket 4.0 18:30:01 10° NNW 18:34:44 62° NNW 18:34:44 62° NNW
ATLAS 5 CENTAUR R/B 4.0 18:52:33 10° NW 18:55:00 19° N 18:55:00 19° N
H-2A R/B 4.5 19:02:37 10° SW 19:06:34 20° W 19:10:34 10° NW
Cosmos 2263 Rocket 3.6 19:13:42 10° NW 19:17:16 36° WNW 19:17:16 36° WNW
CZ-4C R/B 3.4 19:24:32 10° NW 19:29:36 53° NW 19:29:36 53° NW
Cosmos 1697 Rocket 4.5 19:27:12 10° WSW 19:31:25 28° NW 19:31:25 28° NW
USA 215 4.2 19:39:00 41° W 19:39:00 41° W 19:43:19 10° WNW
ATLAS 2AS CENTAUR R/B 4.0 19:47:39 10° NW 19:52:43 36° W 19:52:43 36° W
